Vertical_Velocity
0 0 3 0 -1 1 1 -1 1 -3 1 2 -0 -1 -1 2 2 2 5 0 -1 -1 1 -0 1 -2 -1 1 1 1 -2 0 1 2 1 0 -0 -0 -1 -2 -1 -1 0
2 3 3 5 3 3 2 1 -4 -2 -0 -0 -0 -1 -1 -1 1 2 -2 2 5 -1 1 1 -0 -1 -1 0 1 2 -0 -1 0 2 1 0 -0 1 0 -1 -1 -2 -1
3 -1 1 2 2 3 1 1 4 3 3 3 4 0 -0 -0 -2 0 -1 2 6 3 -2 1 -0 -1 -2 1 -1 1 1 0 -1 -0 1 1 0 -1 -0 -2 2 -0 -1
6 1 3 4 3 7 9 5 2 5 3 6 6 3 2 2 -1 -0 1 0 1 1 3 1 1 -2 -1 -3 2 -1 2 -0 1 -1 1 -0 1 -2 -1 1 1 1 1
10 3 11 17 7 7 1 7 6 3 1 6 4 4 5 4 2 -1 0 1 1 1 0 1 0 1 -1 -2 -1 1 -1 0 -0 0 1 -0 1 2 -1 -1 0 0 2
-1 -2 -5 -2 -13 -8 7 4 4 -1 3 -2 -5 -2 -1 -1 -0 1 0 -1 0 1 2 1 1 1 -1 0 -0 -2 2 -0 1 -0 -1 1 0 0 0 -1 -1 0 -0
2 6 5 4 1 1 -7 2 4 3 1 -0 -2 1 0 -0 -1 -1 -2 -1 0 0 2 1 1 0 1 -1 1 -3 1 -1 0 -1 -0 -1 -4 6 -1 -0 -1 -0 -1
-2 -1 1 4 4 4 4 0 -7 0 3 1 1 -1 -0 -1 0 3 -1 -0 0 -1 3 3 -1 1 -0 -0 2 -3 1 -2 -0 -1 -0 -3 -0 5 -0 0 0 -0 -0
-4 -0 1 0 -1 0 2 3 5 2 -1 2 -0 2 0 -1 2 -0 0 -1 1 2 4 5 -2 2 0 4 2 -1 1 -1 -0 -2 -3 -2 -2 8 -1 -1 -0 0 0
-1 -4 -3 -2 1 2 1 0 1 3 4 5 1 4 2 -1 -1 1 -0 -1 -0 -1 4 6 -0 0 1 6 -1 -2 0 1 -1 -4 1 5 0 7 -1 -0 -1 -0 -0
-3 -0 0 -2 -3 -2 -1 1 1 1 2 1 7 5 8 0 -0 3 1 1 -1 1 -2 -0 3 -1 7 -3 -1 -2 1 -0 -1 0 -4 -1 2 3 4 -5 -1 -0 -1
-1 -2 -1 1 0 -2 -2 0 -1 0 2 4 1 2 10 6 3 3 2 2 -0 -1 -2 -0 10 -1 0 0 -1 -3 1 0 -1 -0 -5 -4 7 12 7 -1 -3 -1 -1
3 1 -1 -2 -1 2 -0 -3 -1 0 -0 1 5 9 8 6 10 -2 1 3 -4 -1 1 -3 -2 -1 -1 -1 1 -1 -0 -1 -1 -1 -5 -2 -2 1 7 1 -1 -1 -1
-1 1 3 2 0 -2 1 0 -2 -2 1 -0 1 6 11 12 9 5 -0 0 -0 -1 -2 -1 2 -3 0 -3 -4 -1 0 -0 -0 -2 -6 -2 -1 -2 10 3 -1 -1 -1
0 -1 1 1 2 2 1 2 2 -2 -3 1 3 2 6 8 17 15 26 4 0 -2 -2 0 -2 -1 1 0 -3 -5 -1 -0 1 -1 -5 -2 -3 -0 1 4 -1 0 -2
-0 -1 -0 0 0 1 1 1 2 3 0 -2 -0 -1 8 -3 29 11 7 21 2 3 14 3 2 -2 1 -1 -3 -2 -5 -2 1 -1 -5 -1 -1 -3 1 7 -0 -0 -3
-1 -1 -1 -1 -1 -1 0 1 -0 -0 3 1 -0 -1 -6 9 -1 -15 5 3 -18 -24 19 9 6 3 -1 0 -0 2 -3 -1 -1 -3 -3 -2 1 -1 -0 2 0 -1 -0
-2 -2 -2 -1 -2 -0 1 -0 1 0 -0 1 1 1 -1 1 2 19 -2 57 -6 -20 20 2 1 5 5 1 -2 1 -0 -1 -1 -1 -3 -2 -1 0 -1 -0 1 2 -1
-3 -3 -2 -4 -5 -1 -1 1 -1 0 -0 0 1 -2 6 -0 1 3 1 6 74 1 73 27 2 6 5 1 1 -0 2 -2 -2 -1 -2 -4 -2 -1 1 0 -7 13 -0
-1 -3 -2 -5 -5 -6 -4 -1 1 -1 1 -2 -2 1 2 2 -2 3 -2 5 42 36 55 46 11 -4 6 5 1 1 -1 -0 -1 -4 -2 -2 -2 -1 -6 44 21 -7 -6
-2 -3 -5 -4 -3 -5 -3 -7 1 -1 -1 1 -3 1 0 2 4 -5 -8 9 0 36 21 -30 -13 -6 -1 7 9 4 -2 2 -1 -2 -1 -2 -2 0 24 -5 -2 -5 -3
-3 -5 -2 -2 -3 -3 -6 -4 -7 -3 -1 -1 -2 -1 0 1 0 6 6 -3 -2 3 27 -10 -3 7 11 -1 2 8 -2 -2 -0 -2 -0 -2 -2 -4 -2 -1 -6 1 -3
-2 -1 -1 -4 -5 -4 -4 -4 -3 -5 -3 -3 -2 1 -1 0 1 4 4 7 -5 -14 62 7 -12 38 19 -4 -6 -4 -7 -10 4 -2 -1 -1 -2 -0 -1 -1 -2 -2 -4
-6 -5 -4 -1 -2 -5 -3 -4 -4 -6 -6 -1 -3 -1 0 -1 1 2 3 10 -7 14 -1 -8 1 3 0 -3 -5 1 2 1 -4 -3 -2 -2 -1 -1 0 -0 -1 2 1
2 0 -1 -5 -3 0 -5 -5 -5 -4 -6 -6 -2 -2 -3 2 0 1 2 -11 27 17 -6 -8 -1 3 7 18 12 3 5 1 -5 -6 -2 3 -2 -2 1 -1 -0 -0 -1
-13 -10 -4 -4 -1 -1 2 -2 -5 -6 -2 -6 -5 -4 -3 -1 3 2 1 3 -10 20 -11 -12 10 -6 -1 -2 1 1 -3 -13 -6 -2 -6 4 6 2 1 4 -1 1 1
Height
3144 3143 3143 3143 3144 3144 3144 3144 3144 3144 3145 3145 3146 3147 3147 3148 3148 3148 3150 3150 3152 3152 3153 3154 3155 3155 3155 3156 3155 3155 3156 3157 3157 3158 3158 3158 3158 3158 3158 3159 3159 3160 3161
3141 3141 3142 3142 3143 3143 3143 3144 3144 3144 3144 3144 3146 3146 3147 3148 3148 3149 3149 3150 3150 3151 3152 3152 3154 3154 3154 3155 3155 3155 3155 3156 3157 3157 3158 3159 3159 3159 3160 3160 3161 3162 3161
3141 3140 3141 3141 3141 3141 3142 3142 3143 3143 3143 3144 3144 3145 3146 3146 3147 3147 3148 3148 3149 3150 3151 3151 3152 3153 3153 3153 3154 3154 3154 3155 3156 3157 3158 3159 3160 3161 3162 3162 3162 3163 3163
3139 3140 3139 3139 3139 3140 3139 3140 3141 3142 3142 3142 3143 3145 3145 3145 3146 3146 3146 3146 3147 3148 3149 3149 3150 3151 3152 3151 3152 3153 3153 3154 3154 3156 3156 3158 3160 3161 3162 3163 3163 3163 3164
3132 3131 3134 3136 3137 3138 3138 3140 3139 3141 3142 3142 3142 3143 3143 3144 3144 3144 3144 3144 3145 3146 3147 3148 3149 3149 3150 3151 3151 3151 3152 3153 3153 3154 3156 3157 3159 3161 3162 3163 3163 3164 3165
3125 3127 3129 3129 3127 3130 3135 3137 3137 3138 3139 3140 3140 3141 3142 3142 3142 3141 3142 3143 3143 3144 3145 3146 3147 3149 3149 3150 3151 3151 3151 3152 3152 3152 3153 3156 3158 3159 3161 3162 3163 3164 3166
3124 3124 3124 3125 3126 3127 3127 3130 3133 3135 3136 3136 3137 3138 3139 3140 3140 3140 3140 3141 3141 3143 3144 3145 3146 3148 3149 3149 3150 3151 3151 3151 3151 3151 3152 3154 3157 3160 3160 3161 3163 3165 3166
3123 3123 3123 3122 3122 3123 3124 3124 3124 3129 3133 3134 3135 3136 3137 3137 3137 3137 3138 3138 3139 3140 3142 3143 3144 3146 3147 3148 3148 3150 3150 3150 3150 3151 3152 3154 3157 3159 3161 3162 3163 3164 3165
3119 3120 3120 3121 3121 3121 3120 3120 3121 3121 3124 3130 3131 3133 3134 3135 3135 3135 3135 3136 3137 3138 3140 3141 3143 3144 3145 3146 3147 3148 3149 3150 3150 3151 3153 3155 3157 3158 3160 3162 3163 3164 3165
3116 3117 3118 3118 3118 3118 3118 3118 3118 3119 3119 3121 3125 3128 3130 3131 3132 3132 3133 3134 3134 3135 3137 3138 3140 3142 3144 3144 3145 3147 3148 3148 3148 3150 3152 3154 3157 3157 3159 3161 3163 3164 3164
3111 3112 3113 3114 3115 3115 3115 3115 3115 3115 3116 3117 3118 3121 3124 3125 3127 3128 3129 3131 3131 3132 3133 3135 3137 3138 3140 3141 3142 3144 3145 3146 3146 3148 3150 3152 3155 3156 3158 3159 3161 3163 3164
3105 3106 3106 3107 3108 3110 3111 3111 3111 3111 3111 3112 3113 3115 3119 3120 3121 3123 3124 3126 3127 3129 3130 3132 3134 3135 3137 3137 3139 3140 3141 3142 3143 3145 3147 3150 3152 3156 3156 3158 3159 3161 3162
3099 3099 3099 3100 3101 3103 3104 3105 3106 3106 3106 3106 3107 3108 3109 3114 3116 3117 3119 3121 3122 3124 3125 3127 3129 3131 3133 3134 3135 3136 3138 3139 3140 3141 3144 3149 3151 3153 3154 3156 3158 3159 3161
3091 3091 3091 3091 3092 3094 3096 3098 3099 3099 3101 3101 3101 3102 3103 3105 3109 3111 3113 3115 3117 3119 3121 3122 3124 3127 3129 3131 3132 3132 3133 3135 3137 3138 3141 3145 3148 3151 3152 3153 3155 3157 3158
3081 3081 3082 3082 3083 3084 3086 3089 3090 3092 3093 3095 3096 3097 3097 3098 3100 3103 3101 3105 3109 3112 3113 3116 3118 3121 3124 3126 3129 3129 3130 3131 3133 3134 3136 3140 3144 3147 3149 3151 3152 3155 3157
3072 3072 3072 3072 3073 3074 3076 3078 3080 3081 3084 3086 3088 3089 3089 3090 3091 3096 3096 3091 3098 3101 3105 3106 3110 3114 3118 3122 3124 3126 3127 3128 3129 3130 3131 3135 3138 3142 3146 3148 3150 3154 3155
3063 3062 3062 3063 3063 3064 3065 3066 3069 3071 3073 3076 3078 3080 3082 3082 3084 3084 3084 3081 3092 3095 3092 3098 3102 3106 3110 3115 3119 3121 3123 3125 3126 3126 3128 3130 3133 3137 3141 3146 3147 3151 3153
3053 3052 3052 3051 3052 3054 3054 3055 3057 3059 3062 3064 3066 3070 3072 3074 3075 3073 3077 3077 3078 3084 3087 3091 3096 3099 3103 3108 3113 3117 3119 3121 3123 3123 3125 3127 3129 3132 3137 3141 3145 3148 3150
3042 3040 3040 3039 3040 3042 3043 3044 3045 3047 3048 3052 3054 3057 3062 3064 3065 3067 3070 3070 3063 3066 3073 3080 3087 3092 3097 3101 3106 3110 3114 3116 3119 3120 3122 3124 3127 3130 3135 3138 3141 3144 3146
3034 3032 3030 3027 3027 3028 3029 3031 3033 3035 3036 3038 3041 3045 3049 3052 3055 3057 3062 3064 3059 3061 3055 3066 3077 3084 3089 3095 3100 3104 3107 3111 3114 3117 3118 3121 3125 3129 3132 3132 3135 3141 3142
3028 3025 3024 3022 3019 3017 3016 3016 3019 3021 3024 3026 3027 3031 3035 3039 3042 3047 3049 3053 3059 3062 3064 3058 3067 3075 3082 3089 3094 3097 3101 3105 3107 3111 3115 3118 3122 3125 3126 3131 3133 3136 3139
3024 3020 3017 3015 3013 3010 3007 3007 3005 3006 3009 3013 3015 3017 3020 3026 3030 3033 3038 3042 3045 3047 3051 3054 3061 3067 3074 3080 3085 3091 3094 3097 3100 3106 3110 3113 3117 3120 3124 3127 3130 3133 3135
3021 3017 3013 3009 3006 3004 3001 2999 2998 2997 2996 2997 3001 3005 3007 3011 3016 3021 3027 3032 3039 3039 3039 3047 3054 3057 3065 3072 3077 3082 3085 3087 3096 3100 3104 3108 3112 3116 3119 3122 3124 3127 3130
3014 3011 3008 3004 3001 2997 2995 2993 2990 2988 2988 2987 2986 2989 2994 2998 3002 3007 3013 3019 3026 3029 3036 3043 3050 3054 3058 3062 3067 3071 3078 3082 3087 3092 3098 3102 3106 3110 3114 3116 3118 3120 3122
3009 3003 2998 2995 2993 2991 2989 2985 2982 2981 2980 2979 2977 2977 2979 2984 2989 2993 2999 3009 3011 3021 3027 3033 3038 3044 3048 3051 3052 3059 3067 3073 3078 3083 3089 3096 3100 3103 3107 3110 3112 3113 3115
3003 2997 2993 2989 2985 2981 2979 2978 2976 2973 2971 2970 2969 2967 2968 2970 2975 2980 2985 2992 3003 3005 3014 3021 3025 3032 3039 3043 3048 3050 3057 3062 3067 3075 3080 3089 3094 3098 3100 3102 3105 3108 3110